FW5469 Weather Reports


Display with metric or nautical units.
time (UTC)temp
F
wind
direction
speed
MPH
gust
MPH
rain 1hr
in
rain 24hr
in
rain mn
in
humidity
%
barometer
mb
20260831213103 86 326 1.0 2.0 0.00 0.00 0.00 66 1016.3
20260831211608 85 0 0.0 4.0 0.00 0.00 0.00 66 1016.4
20260831210100 85 301 2.0 5.0 0.00 0.00 0.00 65 1016.7
20260831204603 87 313 2.0 6.0 0.00 0.00 0.00 62 1016.6
20260831203105 88 232 2.0 6.0 0.00 0.00 0.00 62 1016.5
20260831201605 87 328 1.0 3.0 0.00 0.00 0.00 63 1016.4
20260831200106 86 300 0.0 3.0 0.00 0.00 0.00 66 1016.4
20260831194625 85 0 0.0 1.0 0.00 0.00 0.00 69 1016.4
20260831193101 85 0 0.0 4.0 0.00 0.00 0.00 67 1016.5
20260831191603 85 0 0.0 2.0 0.00 0.00 0.00 65 1016.9
20260831190109 86 174 2.0 9.0 0.00 0.00 0.00 63 1017.1
20260831184605 87 0 0.0 6.0 0.00 0.00 0.00 62 1017.1
20260831183108 88 158 1.0 7.0 0.00 0.00 0.00 62 1017.3
20260831181605 87 331 3.0 8.0 0.00 0.00 0.00 63 1017.3
20260831180107 86 276 2.0 10.0 0.00 0.00 0.00 66 1017.7
20260831174604 85 297 1.0 8.0 0.00 0.00 0.00 68 1017.7
20260831173105 85 219 0.0 6.0 0.00 0.00 0.00 68 1017.6
20260831171606 86 238 2.0 6.0 0.00 0.00 0.00 67 1017.7
20260831170107 86 0 1.0 7.0 0.00 0.00 0.00 67 1017.8
20260831164613 85 311 1.0 7.0 0.00 0.00 0.00 68 1017.8
20260831163106 86 295 1.0 6.0 0.00 0.00 0.00 67 1017.6
20260831161609 86 282 2.0 7.0 0.00 0.00 0.00 65 1017.7
20260831154629 83 160 1.0 4.0 0.00 0.00 0.00 69 1017.8
20260831153105 83 159 1.0 6.0 0.00 0.00 0.00 68 1017.7
20260831151608 83 0 1.0 4.0 0.00 0.00 0.00 68 1017.8
20260831150104 83 321 2.0 6.0 0.00 0.00 0.00 70 1017.8
20260831144610 81 205 1.0 5.0 0.00 0.00 0.00 74 1017.8
20260831143113 80 195 1.0 4.0 0.00 0.00 0.00 76 1017.7
20260831141608 79 243 2.0 6.0 0.00 0.00 0.00 78 1017.7
20260831140107 77 155 1.0 3.0 0.00 0.00 0.00 79 1017.7
20260831134604 76 0 0.0 0.0 0.00 0.00 0.00 80 1017.7
20260831133105 76 0 0.0 0.0 0.00 0.00 0.00 80 1017.7
20260831131605 76 0 0.0 0.0 0.00 0.00 0.00 80 1017.7
20260831130121 75 0 0.0 0.0 0.00 0.00 0.00 82 1017.7
20260831124606 74 0 0.0 0.0 0.00 0.00 0.00 84 1017.4
20260831123107 73 0 0.0 0.0 0.00 0.00 0.00 85 1017.5
20260831121612 72 0 0.0 0.0 0.00 0.00 0.00 86 1017.6
20260831120100 72 0 0.0 0.0 0.00 0.00 0.00 87 1017.8
20260831114607 71 0 0.0 0.0 0.00 0.00 0.00 88 1017.7
20260831113102 72 0 0.0 0.0 0.00 0.00 0.00 87 1017.8
20260831111604 72 0 0.0 0.0 0.00 0.00 0.00 87 1017.6
20260831110107 71 0 0.0 0.0 0.00 0.00 0.00 87 1017.5
20260831104605 71 0 0.0 0.0 0.00 0.00 0.00 87 1017.3
20260831103103 72 0 0.0 0.0 0.00 0.00 0.00 86 1017.2
20260831101606 72 0 0.0 0.0 0.00 0.00 0.00 86 1017.0
20260831094604 72 0 0.0 0.0 0.00 0.00 0.00 86 1017.0
20260831093108 72 0 0.0 0.0 0.00 0.00 0.00 86 1017.0
20260831091611 71 0 0.0 0.0 0.00 0.00 0.00 86 1017.1
20260831090105 71 0 0.0 0.0 0.00 0.00 0.00 86 1017.2
20260831084610 71 0 0.0 0.0 0.00 0.00 0.00 87 1017.1
20260831083108 71 0 0.0 0.0 0.00 0.00 0.00 87 1017.2
20260831081607 71 0 0.0 0.0 0.00 0.00 0.00 87 1017.1
20260831074604 71 0 0.0 0.0 0.00 0.00 0.00 88 1017.2
20260831073111 71 240 0.0 2.0 0.00 0.00 0.00 88 1017.0
20260831071606 71 0 0.0 0.0 0.00 0.00 0.00 89 1017.3
20260831070105 71 0 0.0 0.0 0.00 0.00 0.00 89 1017.3
20260831064604 71 0 0.0 2.0 0.00 0.00 0.00 89 1017.2
20260831063101 71 165 0.0 2.0 0.00 0.00 0.00 90 1017.5
20260831061626 71 167 1.0 3.0 0.00 0.00 0.00 90 1017.6
20260831060112 71 213 1.0 3.0 0.00 0.00 0.00 89 1017.6
20260831054608 72 160 1.0 2.0 0.00 0.00 0.00 89 1017.6
20260831053108 72 155 1.0 3.0 0.00 0.00 0.00 89 1017.6
20260831051610 72 165 2.0 4.0 0.00 0.00 0.00 89 1017.6
20260831050103 72 153 1.0 4.0 0.00 0.00 0.00 89 1017.7
20260831044608 72 0 0.0 2.0 0.00 0.00 0.00 89 1017.7
20260831043123 72 204 0.0 1.0 0.00 0.00 0.00 89 1017.8
20260831041645 72 0 0.0 0.0 0.00 0.00 0.00 89 1017.8
20260831040108 72 0 0.0 0.0 0.00 0.00 0.00 88 1017.8
20260831034607 72 0 0.0 2.0 0.00 0.00 0.00 88 1017.8
20260831033107 72 168 0.0 3.0 0.00 0.00 0.00 88 1017.9
20260831031607 72 164 1.0 2.0 0.00 0.00 0.00 89 1018.0
20260831030109 71 167 1.0 3.0 0.00 0.00 0.00 89 1018.1
20260831024621 71 0 0.0 0.0 0.00 0.00 0.00 89 1018.5
20260831023113 71 0 0.0 0.0 0.00 0.00 0.00 89 1018.5
20260831021604 71 0 0.0 0.0 0.00 0.00 0.00 89 1018.7
20260831020104 71 0 0.0 0.0 0.00 0.00 0.00 89 1018.6
20260831014601 71 0 0.0 0.0 0.00 0.00 0.00 89 1018.9
20260831013111 71 0 0.0 0.0 0.00 0.00 0.00 88 1018.9
20260831011601 71 0 0.0 0.0 0.00 0.00 0.00 88 1019.1
20260831010124 72 0 0.0 0.0 0.00 0.00 0.00 88 1018.9
20260831004604 72 0 0.0 0.0 0.00 0.00 0.00 88 1018.8
20260831003105 72 0 0.0 0.0 0.00 0.00 0.00 87 1018.8
20260831001607 73 0 0.0 0.0 0.00 0.00 0.00 86 1018.8
20260831000118 73 0 0.0 0.0 0.00 0.00 0.00 86 1018.6
20260830234603 73 0 0.0 0.0 0.00 0.00 0.00 85 1018.5
20260830233104 74 0 0.0 0.0 0.00 0.00 0.00 85 1018.3
20260830231605 74 0 0.0 0.0 0.00 0.00 0.00 84 1018.0
20260830230107 74 0 0.0 0.0 0.00 0.00 0.00 83 1017.6
20260830224605 75 0 0.0 0.0 0.00 0.00 0.00 82 1017.7
20260830223134 76 0 0.0 0.0 0.00 0.00 0.00 80 1017.5
20260830221608 76 0 0.0 2.0 0.00 0.00 0.00 80 1017.3
20260830220107 76 0 0.0 3.0 0.00 0.00 0.00 80 1017.1
20260830214606 76 222 0.0 5.0 0.00 0.00 0.00 80 1017.1